User: anonymous   Login
Location: Unspecified
(0.0000°N, 0.0000°E)
Time: 01:39:47
(UTC+02:00)
Language:

Cosmos 773 Rocket - Orbit

View from above orbital plane
View from above orbital plane
View from above satellite
View from above satellite

Ground track
Ground track

The orbit data is extracted from the following two-line orbital elements,

1  8344U 75094B   17289.50290511 -.00000014 +00000-0 +38810-5 0  9995
2  8344 074.0555 262.0782 0020896 135.4759 224.8080 14.39102236202877
Epoch (UTC): 16 October 2017 12:04:11
Eccentricity: 0.0020896
inclination: 74.0555°
perigee height: 746 km
apogee height: 776 km
right ascension of ascending node: 262.0782°
argument of perigee: 135.4759°
revolutions per day: 14.39102236
mean anomaly at epoch: 224.8080°
orbit number at epoch: 20287

The dashed part of the orbit path shows where the satellite is in the earth's shadow,  

DLR